Terug naar catalogus

CZ-6A DEB

ActiefSSO
NORAD 56252·DEBRIS·🇨🇳 China

Gelanceerd Nov 11, 2022 vanaf Taiyuan Satellite Launch Center

Loading…

Volgende Passages (komende 24 uur)

TLE

VersSource: Space-Track

Epoch: Sep 13, 2026, 10:48 UTC

1 56252U 22151ABU 26256.45022962  .00000643  00000-0  41386-3 0  9990
2 56252  98.8844 241.7085 0086105 105.9382 255.1293 14.04756629178667

Volg CZ-6A DEB in realtime met AllMySat

Download on the App Store